Weather reports worldwide

Advertisment
Aultbea, United Kingdom (3034): temperature & dewpoint: 10.12.2018 00:00:00 - 16.12.2018 00:00:00 (GMT)Aultbea, United Kingdom (3034): temperature -20cm & temperature -100cm: 10.12.2018 00:00:00 - 16.12.2018 00:00:00 (GMT)Aultbea, United Kingdom (3034): wind speed & gusts: 10.12.2018 00:00:00 - 16.12.2018 00:00:00 (GMT)Aultbea, United Kingdom (3034): wind direction: 10.12.2018 00:00:00 - 16.12.2018 00:00:00 (GMT)Aultbea, United Kingdom (3034): reduced air pressure: 10.12.2018 00:00:00 - 16.12.2018 00:00:00 (GMT)Aultbea, United Kingdom (3034): visibility: 10.12.2018 00:00:00 - 16.12.2018 00:00:00 (GMT)Aultbea, United Kingdom (3034): precipitation: 10.12.2018 00:00:00 - 16.12.2018 00:00:00 (GMT)
Date & Time tt [°C] td [°C] tt -20cm [°C] tt -100cm [°C] ff [km/h] ff [kn] fx [km/h] fx [kn] dd ppp [hPa] vv [km] rr [mm]
16.12.2018 00:00:00 4,5 2,6 - - 13 7 - - S 985,6 17 1,4
15.12.2018 23:00:00 4,6 2,6 - - 16 9 - - SE 985,5 13 1,0
15.12.2018 22:00:00 4,6 2,4 - - 21 11 50 27 SSE 986,0 40 0,8
15.12.2018 21:00:00 4,9 2,2 - - 34 18 54 29 SE 986,2 14 1,6
15.12.2018 20:00:00 5,1 2,7 - - 24 13 55 30 SE 986,4 10 3,8
15.12.2018 19:00:00 5,5 2,4 - - 24 13 61 33 ESE 986,9 11 0,6
15.12.2018 18:00:00 5,8 1,9 - - 39 21 67 36 SE 987,8 17 0,0
15.12.2018 17:00:00 5,4 1,7 - - 44 24 72 39 SE 988,9 50 0,2
15.12.2018 16:00:00 4,9 2,2 - - 35 19 59 32 SE 990,8 11 0,6
15.12.2018 15:00:00 5,5 1,2 - - 31 17 54 29 SE 993,0 23 0,2
15.12.2018 14:00:00 5,9 -0,9 - - 16 9 - - ESE 994,2 30 0,0
15.12.2018 13:00:00 6,3 -1,8 - - 26 14 48 26 ESE 996,6 50 0,0
15.12.2018 12:00:00 6,7 -0,9 - - 21 11 50 27 ESE 998,2 45 0,0
15.12.2018 11:00:00 6,5 1,2 - - 16 9 - - ESE 1000,4 50 0,0
15.12.2018 10:00:00 6,6 1,6 - - 16 9 - - E 1002,4 45 0,0
15.12.2018 09:00:00 7,1 1,4 5,5 7,2 21 11 - - SE 1003,5 50 0,0
15.12.2018 08:00:00 8,0 1,3 - - 26 14 - - SSE 1003,6 50 0,0
15.12.2018 07:00:00 7,3 1,4 - - 29 16 46 25 SSE 1002,9 50 0,0
15.12.2018 06:00:00 7,4 1,4 - - 37 20 48 26 SE 1003,2 40 0,0
15.12.2018 05:00:00 7,1 0,1 - - 28 15 - - SSE 1004,6 50 0,0
15.12.2018 04:00:00 7,2 0,3 - - 18 10 - - SSE 1005,1 45 0,0
15.12.2018 03:00:00 6,3 -0,6 - - 13 7 - - ESE 1006,0 45 0,0
15.12.2018 02:00:00 6,2 -0,3 - - 13 7 - - ESE 1007,1 50 0,0
15.12.2018 01:00:00 6,0 -1,1 - - 24 13 - - SE 1007,9 50 0,0
15.12.2018 00:00:00 5,8 -1,7 - - 28 15 - - ESE 1008,9 45 0,0
14.12.2018 23:00:00 5,9 -1,9 - - 21 11 - - ESE 1009,6 45 0,0
14.12.2018 22:00:00 6,3 -1,4 - - 15 8 - - ESE 1010,5 50 0,0
14.12.2018 21:00:00 6,6 -1,6 - - 15 8 - - SSE 1011,0 50 0,0
14.12.2018 20:00:00 5,7 -3,0 - - 13 7 - - SE 1011,2 45 0,0
14.12.2018 19:00:00 5,9 -3,8 - - 21 11 - - SE 1011,4 50 0,0
14.12.2018 18:00:00 6,0 -3,6 - - 21 11 - - SSE 1011,6 45 0,0
14.12.2018 17:00:00 5,6 -3,6 - - 11 6 - - SSE 1012,3 50 0,0
14.12.2018 16:00:00 5,3 -5,9 - - 13 7 - - SE 1012,5 50 0,0
14.12.2018 15:00:00 6,7 -3,7 - - 16 9 - - S 1013,7 50 0,0
14.12.2018 14:00:00 7,0 -4,8 - - 15 8 - - SSE 1014,0 50 0,0
14.12.2018 13:00:00 6,8 -6,8 - - 13 7 - - SE 1014,2 50 0,0
14.12.2018 12:00:00 5,6 -4,5 - - 8 4 - - E 1015,3 50 0,0
14.12.2018 11:00:00 6,1 -3,4 - - 16 9 - - S 1016,1 50 0,0
14.12.2018 10:00:00 5,3 -3,5 - - 11 6 - - SE 1015,9 50 0,0
14.12.2018 09:00:00 5,5 -3,3 5,7 7,2 9 5 - - SSE 1016,1 50 0,0
14.12.2018 08:00:00 5,4 -2,9 - - 13 7 - - SE 1015,7 50 0,0
14.12.2018 07:00:00 5,6 -3,7 - - 11 6 - - SE 1015,7 50 0,0
14.12.2018 06:00:00 5,8 -3,9 - - 11 6 - - SE 1016,2 50 0,0
14.12.2018 05:00:00 5,6 -2,3 - - 11 6 - - SSE 1016,6 50 0,0
14.12.2018 04:00:00 5,8 -2,5 - - 15 8 - - SSE 1017,1 50 0,0
14.12.2018 03:00:00 5,8 -2,7 - - 13 7 - - SSE 1017,2 50 0,0
14.12.2018 02:00:00 6,2 -2,3 - - 13 7 - - SSE 1016,9 50 0,0
14.12.2018 01:00:00 6,7 -2,0 - - 16 9 - - SE 1016,3 45 0,0
14.12.2018 00:00:00 6,7 -2,7 - - 13 7 - - SE 1016,4 50 0,0
13.12.2018 23:00:00 6,2 -4,3 - - 4 2 - - E 1016,3 50 0,0
13.12.2018 22:00:00 7,2 -2,7 - - 13 7 - - SE 1015,9 50 0,0
13.12.2018 21:00:00 7,2 -2,4 - - 21 11 48 26 SSE 1015,7 45 0,0
13.12.2018 20:00:00 7,1 -2,6 - - 35 19 48 26 S 1014,6 50 0,0
13.12.2018 19:00:00 6,6 -2,9 - - 28 15 - - SSE 1014,3 50 0,0
13.12.2018 18:00:00 6,4 -3,0 - - 26 14 - - ESE 1014,1 50 0,0
13.12.2018 17:00:00 6,2 -1,7 - - 26 14 - - SE 1014,1 50 0,0
13.12.2018 16:00:00 6,0 -1,6 - - 28 15 - - SE 1013,5 40 0,0
13.12.2018 15:00:00 6,2 -1,4 - - 26 14 - - SE 1013,2 50 0,0
13.12.2018 14:00:00 6,3 -2,8 - - 29 16 48 26 SE 1012,9 50 0,0
13.12.2018 13:00:00 6,4 -2,6 - - 31 17 - - SE 1013,1 50 0,0
13.12.2018 12:00:00 6,1 -2,7 - - 26 14 - - ESE 1013,0 50 0,0
13.12.2018 11:00:00 5,8 -2,5 - - 21 11 - - ESE 1013,0 50 0,0
13.12.2018 10:00:00 5,9 -2,2 - - 26 14 - - ESE 1012,6 50 0,0
13.12.2018 09:00:00 6,6 -2,6 5,9 7,2 28 15 - - SE 1012,1 50 0,0
13.12.2018 08:00:00 5,4 -4,0 - - 26 14 - - E 1011,5 50 0,0
13.12.2018 07:00:00 6,1 -3,5 - - 29 16 - - ESE 1011,1 50 0,0
13.12.2018 06:00:00 5,9 -3,7 - - 24 13 - - ESE 1011,1 50 0,0
13.12.2018 05:00:00 5,5 -3,0 - - 18 10 - - E 1011,3 50 0,0
13.12.2018 04:00:00 5,6 -3,3 - - 26 14 - - E 1011,2 50 0,0
13.12.2018 03:00:00 6,1 -3,2 - - 21 11 - - SE 1011,9 50 0,0
13.12.2018 02:00:00 6,5 -1,8 - - 16 9 50 27 ESE 1011,7 50 0,0
13.12.2018 01:00:00 6,8 0,5 - - 22 12 54 29 ESE 1011,4 50 0,0
13.12.2018 00:00:00 7,7 2,0 - - 37 20 52 28 SE 1011,2 45 0,0
12.12.2018 23:00:00 7,4 1,9 - - 28 15 - - ESE 1011,6 35 0,0
12.12.2018 22:00:00 7,5 2,3 - - 24 13 - - ESE 1011,9 40 0,0
12.12.2018 21:00:00 7,9 2,7 - - 26 14 - - ESE 1012,0 50 0,0
12.12.2018 20:00:00 7,5 3,2 - - 15 8 - - E 1012,7 40 0,0
12.12.2018 19:00:00 8,0 3,7 - - 29 16 - - ESE 1012,7 40 0,0
12.12.2018 18:00:00 8,1 4,1 - - 29 16 - - SE 1013,0 40 0,0
12.12.2018 17:00:00 8,3 4,1 - - 26 14 - - SE 1013,2 40 0,0
12.12.2018 16:00:00 8,4 4,7 - - 15 8 - - SSE 1013,0 50 0,0
12.12.2018 15:00:00 9,1 5,1 - - 22 12 - - SE 1013,2 50 0,0
12.12.2018 14:00:00 9,5 5,1 - - 22 12 - - ESE 1013,6 50 0,0
12.12.2018 13:00:00 9,5 5,3 - - 22 12 - - SE 1014,2 50 0,0
12.12.2018 12:00:00 9,9 5,6 - - 21 11 - - SE 1014,5 50 0,0
12.12.2018 11:00:00 9,8 5,7 - - 18 10 - - SE 1014,8 40 0,0
12.12.2018 10:00:00 9,7 5,9 - - 26 14 - - SE 1014,6 50 0,0
12.12.2018 09:00:00 9,8 6,1 5,9 7,2 13 7 - - SSE 1014,8 50 0,0
12.12.2018 08:00:00 9,3 5,8 - - 11 6 - - S 1014,7 50 0,0
12.12.2018 07:00:00 9,2 5,4 - - 5 3 - - E 1014,5 50 0,0
12.12.2018 06:00:00 9,3 6,1 - - 9 5 - - SSW 1014,6 50 0,0
12.12.2018 05:00:00 8,8 5,2 - - 8 4 - - E 1014,5 50 0,0
12.12.2018 04:00:00 9,1 4,9 - - 5 3 - - E 1014,5 50 0,0
12.12.2018 03:00:00 8,9 4,8 - - 8 4 - - SE 1014,4 50 0,0
12.12.2018 02:00:00 9,1 5,4 - - 5 3 - - SE 1014,6 50 0,0
12.12.2018 01:00:00 9,8 5,7 - - 13 7 - - ESE 1014,7 45 0,0
12.12.2018 00:00:00 8,3 6,0 - - 2 1 - - NE 1014,6 50 0,0
11.12.2018 23:00:00 9,5 6,3 - - 16 9 - - E 1014,6 45 0,0
11.12.2018 22:00:00 9,3 6,4 - - 5 3 - - ESE 1015,2 50 0,0
11.12.2018 21:00:00 10,0 7,4 - - 21 11 - - SSW 1015,0 45 0,0
11.12.2018 20:00:00 10,2 6,5 - - 8 4 - - NW 1014,6 45 0,0
11.12.2018 19:00:00 8,8 5,8 - - 2 1 - - SSW 1013,9 50 0,0
11.12.2018 18:00:00 9,0 5,7 - - 8 4 - - ESE 1014,2 50 0,0
11.12.2018 17:00:00 9,0 5,7 - - 13 7 - - SE 1014,9 50 0,0
11.12.2018 16:00:00 8,6 5,3 - - 5 3 - - S 1014,9 50 0,0
11.12.2018 15:00:00 8,9 5,6 - - 8 4 - - E 1015,2 45 0,0
11.12.2018 14:00:00 9,2 5,7 - - 13 7 - - SSE 1015,5 50 0,0
11.12.2018 13:00:00 8,7 5,5 - - 13 7 - - SSE 1015,6 40 0,0
11.12.2018 12:00:00 7,9 4,9 - - 5 3 - - E 1016,0 50 0,0
11.12.2018 11:00:00 7,1 4,2 - - 9 5 - - ESE 1016,7 50 0,0
11.12.2018 10:00:00 6,1 3,9 - - 8 4 - - SE 1016,5 40 0,0
11.12.2018 09:00:00 4,6 3,2 5,7 7,4 4 2 - - E 1017,0 45 0,0
11.12.2018 08:00:00 5,1 3,4 - - 5 3 - - ESE 1017,2 50 0,0
11.12.2018 07:00:00 4,6 2,8 - - 5 3 - - ESE 1017,6 50 0,0
11.12.2018 06:00:00 5,5 3,0 - - 9 5 - - SE 1018,1 50 0,0
11.12.2018 05:00:00 6,8 3,8 - - 11 6 - - SSE 1018,4 50 0,0
11.12.2018 04:00:00 7,2 3,8 - - 16 9 - - SSE 1019,0 50 0,0
11.12.2018 03:00:00 6,6 3,8 - - 13 7 - - SSE 1019,4 50 0,0
11.12.2018 02:00:00 6,5 3,3 - - 15 8 - - SSE 1019,7 45 0,0
11.12.2018 01:00:00 6,3 3,2 - - 21 11 - - SE 1020,1 50 0,0
11.12.2018 00:00:00 6,1 2,6 - - 21 11 - - SSE 1020,7 50 0,0
10.12.2018 23:00:00 5,8 2,6 - - 15 8 - - SSE 1021,3 45 0,0
10.12.2018 22:00:00 5,5 2,4 - - 11 6 - - SSE 1022,0 50 0,0
10.12.2018 21:00:00 5,4 2,7 - - 11 6 - - S 1022,3 50 0,0
10.12.2018 20:00:00 5,1 2,3 - - 11 6 - - SE 1022,5 50 0,0
10.12.2018 19:00:00 4,8 2,3 - - 8 4 - - SSE 1023,1 50 0,0
10.12.2018 18:00:00 4,9 1,4 - - 11 6 - - SE 1023,7 50 0,0
10.12.2018 17:00:00 4,4 1,9 - - 11 6 - - S 1024,0 50 0,0
10.12.2018 16:00:00 4,1 2,0 - - 8 4 - - ESE 1024,5 50 0,0
10.12.2018 15:00:00 4,2 2,2 - - 11 6 - - SSE 1024,4 45 0,0
10.12.2018 14:00:00 4,1 2,2 - - 8 4 - - SSE 1025,4 50 0,0
10.12.2018 13:00:00 4,1 2,4 - - 9 5 - - SSE 1025,6 50 0,0
10.12.2018 12:00:00 4,4 2,1 - - 11 6 - - SE 1025,7 45 0,0
10.12.2018 11:00:00 3,0 0,9 - - 4 2 - - E 1025,3 50 0,0
10.12.2018 10:00:00 1,7 0,6 - - 4 2 - - E 1024,8 45 0,0
10.12.2018 09:00:00 1,9 0,6 5,9 7,4 8 4 - - E 1024,6 45 0,0
10.12.2018 08:00:00 2,4 0,2 - - 4 2 - - ESE 1024,3 45 0,0
10.12.2018 07:00:00 3,9 1,0 - - 4 2 - - ENE 1024,0 45 0,0
10.12.2018 06:00:00 4,5 0,6 - - 8 4 - - N 1023,8 45 0,0
10.12.2018 05:00:00 4,6 0,1 - - 8 4 - - NNW 1022,8 45 0,0
10.12.2018 04:00:00 3,6 0,6 - - 9 5 - - N 1022,4 50 0,0
10.12.2018 03:00:00 5,9 1,0 - - 9 5 - - NW 1022,2 45 0,0
10.12.2018 02:00:00 5,3 0,3 - - 8 4 - - NW 1021,6 40 0,0
10.12.2018 01:00:00 5,3 1,2 - - 8 4 - - NW 1020,8 40 0,0
10.12.2018 00:00:00 5,8 1,7 - - 9 5 - - NNW 1020,0 35 0,0

tt = temperature
td = dewpoint
tt -20cm = temperature -20cm
tt -100cm = temperature -100cm
ff = wind speed
fx = gusts
dd = wind direction
ppp = reduced air pressure
vv = visibility
rr = precipitation

Next stations